Location: Arboucave
(43.6130°N, 0.4343°W)
Time: 06:22:09
(UTC+00:00)

Cosmos 1812 - Pass Details

Date: 17 November 2025
Orbit: 344 x 354 km, 82.5° (Epoch: 04 December)

Event Time Altitude Azimuth Distance (km) Brightness Sun altitude
Rises 17:16:22 0° 161° (SSE) 2,233 5.9 -7.8°
Reaches altitude 10° 17:18:35 10° 146° (SE) 1,381 4.7 -8.2°
Maximum altitude 17:21:01 23° 91° (E) 855 3.3 -8.6°
Drops below altitude 10° 17:23:27 10° 37° (NE) 1,377 4.4 -9.0°
Enters shadow 17:23:52 - 33° (NNE) 1,529 4.6 -9.1°
